Yoho Park, British Columbia

11:23 AM MST on January 16, 2018 (GMT -0700)
Yoho Park

Weather History for CWYL - September, 2014

Change the Weather History Date:

Tuesday, September 2, 2014

  Actual Average Record
Temperature  
Mean Temperature 44 °F -  
Max Temperature 49 °F - - ()
Min Temperature 39 °F - - ()
Degree Days  
Heating Degree Days 20    
Moisture  
Dew Point 42 °F    
Average Humidity 96    
Maximum Humidity 100    
Minimum Humidity 81    
Precipitation  
Precipitation 0.31 in - - ()
Sea Level Pressure  
Sea Level Pressure 29.84 in    
Wind  
Wind Speed 8 mph ()    
Max Wind Speed 13 mph    
Max Gust Speed 17 mph    
T = Trace of Precipitation, MM = Missing Value Source: Averaged Metar Reports

Daily Weather History Graph

Daily Weather History Graph

Search for Another Location

Airport or City:

Trip Planner

Search our weather history database for the weather conditions in past years. The results will help you decide how hot, cold, wet, or windy it might be!

Date:

Astronomy

Sep. 02, 2014 Rise Set
Actual Time 6:59 AM MDT 8:28 PM MDT
Civil Twilight 6:25 AM MDT 9:03 PM MDT
Nautical Twilight 5:42 AM MDT 9:45 PM MDT
Astronomical Twilight 4:55 AM MDT 10:32 PM MDT
Moon 3:38 PM MDT (9/2) No Moon Set
Length of Visible Light 14h 38m
Length of Day
13h 29m
First Quarter, 53% of the Moon is Illuminated
Sep 2
First Quarter
Sep 8
Full
Sep 15
Last Quarter
Sep 24
New
Oct 1
First Quarter

Hourly Weather History & Observations

Time (MDT) Temp. Windchill Dew Point Humidity Pressure Visibility Wind Dir Wind Speed Gust Speed Precip Events Conditions
12:00 AM 43 °F - 42 °F 96% 29.89 in - West 9.2 mph - -  
12:00 AM 42.6 °F 37.2 °F 42.3 °F 99% 29.89 in - West 9.2 mph - 0.01 in   Unknown
1:00 AM 42.4 °F 36.5 °F 41.9 °F 98% 29.89 in - West 10.4 mph - 0.04 in   Unknown
2:00 AM 42.3 °F 36.8 °F 41.9 °F 99% 29.88 in - West 9.2 mph - 0.01 in   Unknown
3:00 AM 42.3 °F 36.3 °F 41.9 °F 99% 29.87 in - West 10.4 mph - 0.02 in   Unknown
4:00 AM 41.9 °F 36.3 °F 41.7 °F 99% 29.87 in - West 9.2 mph - 0.09 in   Unknown
5:00 AM 41.5 °F 35.9 °F 41.4 °F 99% 29.85 in - West 9.2 mph - 0.11 in   Unknown
6:00 AM 41 °F - 41 °F 100% 29.83 in - West 12.7 mph - -  
6:00 AM 41.4 °F 34.3 °F 41.2 °F 99% 29.83 in - West 12.7 mph - 0.04 in   Unknown
7:00 AM 41.4 °F 36.2 °F 41.4 °F 100% 29.83 in - West 8.1 mph - 0.05 in   Unknown
8:00 AM 41.5 °F 34.6 °F 41.5 °F 100% 29.85 in - WSW 12.7 mph - 0.04 in   Unknown
9:00 AM 41.0 °F 38.0 °F 41.0 °F 100% 29.86 in - WSW 4.6 mph - 0.10 in   Unknown
10:00 AM 41.7 °F - 41.4 °F 99% 29.86 in - SSW 2.3 mph - 0.02 in   Unknown
11:00 AM 43.2 °F 39.0 °F 42.6 °F 98% 29.85 in - WSW 6.9 mph - 0.02 in   Unknown
12:00 PM 43 °F - 42 °F 97% 29.85 in - West 9.2 mph - -  
12:00 PM 43.0 °F 37.7 °F 42.4 °F 98% 29.85 in - West 9.2 mph - 0.04 in   Unknown
1:00 PM 44.6 °F 40.2 °F 43.0 °F 94% 29.83 in - WSW 8.1 mph - 0.01 in   Unknown
2:00 PM 45.5 °F 44.2 °F 44.8 °F 97% 29.80 in - SSW 3.5 mph - 0.01 in   Unknown
3:00 PM 48.4 °F - 42.8 °F 81% 29.80 in - WSW 9.2 mph - N/A   Unknown
4:00 PM 48.9 °F - 43.3 °F 81% 29.78 in - WSW 12.7 mph - N/A   Unknown
6:00 PM 47 °F - 44 °F 83% 29.77 in - SSW 3.5 mph - -  
6:00 PM 46.9 °F - 43.5 °F 88% 29.77 in - SSW 3.5 mph - N/A   Unknown
7:00 PM 43.2 °F 37.4 °F 42.1 °F 96% 29.80 in - WSW 10.4 mph 17.3 mph 0.04 in   Unknown
8:00 PM 40.8 °F - 40.3 °F 98% 29.81 in - SSE 1.2 mph - 0.15 in   Unknown
9:00 PM 40.5 °F - 38.3 °F 92% 29.82 in - ESE 1.2 mph - N/A   Unknown
10:00 PM 39.6 °F 37.4 °F 39.4 °F 99% 29.81 in - ENE 3.5 mph - 0.01 in   Unknown